Main page
METAR-TAF:

METAR-TAF

Airports :

Semnan, Iran

latitude: 35-33N, longitude: 053-23E, elevation: 1171 m

Current weather observation

The report was made 52 minutes ago, at 04:00 UTC
Wind 4 kt from the North/Northwest
Temperature 14°C
Humidity 23%
Pressure 1017 hPa
Visibility 10 km or more
no clouds below 1500 m and no cumulonimbus

METAR: OIIS 220400Z 34004KT CAVOK 14/M07 Q1017

Time: 08:22 (04:52 UTC)


TAF: missing

Weather observations and forecasts of more than 4000 airports (METAR and TAF reports).

The available stations are represented by yellow and red dots on the map.

Hover mouse over dot to see the name of the station.

Then click to see weather observations and forecasts.

To change the map : click on the green buttons with a black cross to zoom in, on the green button with a dash to zoom out, or on the green arrows for adjacent maps.


METAR-TAF: